Asheville, NC

12:57 PM EDT on June 22, 2017 (GMT -0400)
Asheville Regional

Weather History for KAVL - August, 2008

Change the Weather History Date:

Sunday, August 17, 2008

  Actual Average Record
Temperature  
Mean Temperature 71 °F 73 °F  
Max Temperature 80 °F 83 °F 94 °F (1988)
Min Temperature 62 °F 63 °F 50 °F (1889)
Degree Days  
Heating Degree Days 0 0  
Month to date heating degree days 0 0  
Since 1 June heating degree days 14  
Since 1 July heating degree days 1 0  
Cooling Degree Days 6 8  
Month to date cooling degree days 143 147  
Year to date cooling degree days 667 657  
Since 1 June cooling degree days 599  
Growing Degree Days 20 (Base 50)    
Moisture  
Dew Point 60 °F    
Average Humidity 75    
Maximum Humidity 100    
Minimum Humidity 50    
Precipitation  
Precipitation 0.00 in 0.14 in 3.40 in (1985)
Month to date precipitation 0.40 2.41  
Year to date precipitation 20.30 29.62  
Snow  
Snow 0.00 in 0.00 in 0.00 in ()
Month to date snowfall 0.0 0.0  
Since 1 June snowfall 0.0  
Since 1 July snowfall 0.0 0.0  
Snow Depth -    
Sea Level Pressure  
Sea Level Pressure 30.04 in    
Wind  
Wind Speed 3 mph (SSE)    
Max Wind Speed 14 mph    
Max Gust Speed 18 mph    
Visibility 9 miles    
Events      
T = Trace of Precipitation, MM = Missing Value Source: NWS Daily Summary

Daily Weather History Graph

Daily Weather History Graph

Search for Another Location

Airport or City:

Trip Planner

Search our weather history database for the weather conditions in past years. The results will help you decide how hot, cold, wet, or windy it might be!

Date:

Astronomy

Aug. 17, 2008 Rise Set
Actual Time 6:51 AM EDT 8:16 PM EDT
Civil Twilight 6:24 AM EDT 8:43 PM EDT
Nautical Twilight 5:52 AM EDT 9:15 PM EDT
Astronomical Twilight 5:18 AM EDT 9:48 PM EDT
Moon 8:42 PM EDT (8/17) 7:31 AM EDT (8/17)
Length of Visible Light 14h 18m
Length of Day
13h 24m
Full, 99% of the Moon is Illuminated
Aug 17
Full
Aug 23
Last Quarter
Aug 30
New
Sep 7
First Quarter
Sep 15
Full

Hourly Weather History & Observations

Time (EDT) Temp. Dew Point Humidity Pressure Visibility Wind Dir Wind Speed Gust Speed Precip Events Conditions
12:54 AM 63.0 °F 62.1 °F 97% 30.04 in 7.0 mi NNW 3.5 mph - N/A   Overcast
1:54 AM 63.0 °F 62.1 °F 97% 30.04 in 5.0 mi Calm Calm - N/A   Mostly Cloudy
2:54 AM 63.0 °F 61.0 °F 93% 30.04 in 6.0 mi Calm Calm - N/A   Overcast
3:54 AM 63.0 °F 61.0 °F 93% 30.06 in 8.0 mi NW 5.8 mph - N/A   Overcast
4:54 AM 63.0 °F 60.1 °F 90% 30.07 in 9.0 mi Variable 4.6 mph - N/A   Overcast
5:27 AM 62.6 °F 60.8 °F 94% 30.12 in 8.0 mi Calm Calm - N/A   Overcast
5:40 AM 64.4 °F 60.8 °F 88% 30.12 in 10.0 mi Calm Calm - N/A   Overcast
5:54 AM 63.0 °F 61.0 °F 93% 30.05 in 7.0 mi Calm Calm - N/A   Overcast
6:54 AM 63.0 °F 60.1 °F 90% 30.05 in 9.0 mi NNW 4.6 mph - N/A   Overcast
7:54 AM 63.0 °F 60.1 °F 90% 30.07 in 7.0 mi Calm Calm - N/A   Clear
8:54 AM 66.9 °F 60.1 °F 79% 30.06 in 10.0 mi Calm Calm - N/A   Clear
9:54 AM 70.0 °F 59.0 °F 68% 30.07 in 10.0 mi Calm Calm - N/A   Clear
10:54 AM 72.0 °F 57.9 °F 61% 30.07 in 10.0 mi Variable 3.5 mph - N/A   Partly Cloudy
11:54 AM 73.0 °F 57.9 °F 59% 30.05 in 10.0 mi SSW 4.6 mph - N/A   Scattered Clouds
12:54 PM 75.9 °F 60.1 °F 58% 30.04 in 10.0 mi South 8.1 mph - N/A   Scattered Clouds
1:54 PM 77.0 °F 59.0 °F 54% 30.02 in 10.0 mi South 9.2 mph - N/A   Mostly Cloudy
2:54 PM 77.0 °F 57.2 °F 50% 30.08 in 10.0 mi SSE 8.1 mph - N/A   Scattered Clouds
3:54 PM 75.9 °F 59.0 °F 56% 29.99 in 10.0 mi SSE 5.8 mph - N/A   Overcast
4:54 PM 79.0 °F 59.0 °F 50% 29.97 in 10.0 mi Calm Calm - N/A   Mostly Cloudy
5:54 PM 77.0 °F 60.1 °F 56% 29.97 in 10.0 mi SE 6.9 mph - N/A   Clear
6:54 PM 75.0 °F 60.1 °F 60% 29.98 in 10.0 mi East 6.9 mph - N/A   Clear
7:54 PM 73.0 °F 60.1 °F 64% 29.99 in 10.0 mi SSE 4.6 mph - N/A   Partly Cloudy
8:54 PM 71.1 °F 60.1 °F 68% 30.01 in 10.0 mi SE 3.5 mph - N/A   Partly Cloudy
9:54 PM 69.1 °F 62.1 °F 78% 30.02 in 10.0 mi Calm Calm - N/A   Overcast
10:54 PM 69.1 °F 62.1 °F 78% 30.03 in 10.0 mi Calm Calm - N/A   Overcast
11:54 PM 68.0 °F 63.0 °F 84% 30.04 in 10.0 mi Calm Calm - N/A   Overcast